EN

Hourly Weather Padniewko

Today, 8 March, Monday

Time Temperature Precipitation Wind Pressure Humidity
00:00 -3°C° 0.1 mm 2 mps 752 mmHg 85%
01:00 -3°C° 0.1 mm 2 mps 752 mmHg 84%
02:00 -3°C° 0 mm 2 mps 752 mmHg 83%
03:00 -4°C° 0 mm 2 mps 752 mmHg 81%
04:00 -4°C° 0 mm 2 mps 752 mmHg 80%
05:00 -4°C° 0 mm 2 mps 753 mmHg 77%
06:00 -5°C° 0 mm 3 mps 753 mmHg 75%
07:00 -5°C° 0 mm 3 mps 753 mmHg 73%
08:00 -2°C° 0 mm 3 mps 754 mmHg 67%
09:00 -1°C° 0 mm 3 mps 755 mmHg 61%
10:00 0°C° 0 mm 4 mps 755 mmHg 55%
11:00 0°C° 0 mm 4 mps 755 mmHg 53%
12:00 0°C° 0 mm 4 mps 755 mmHg 51%
13:00 +1°C° 0 mm 4 mps 756 mmHg 49%
14:00 +1°C° 0 mm 4 mps 756 mmHg 51%
15:00 0°C° 0 mm 4 mps 756 mmHg 52%
16:00 0°C° 0 mm 4 mps 756 mmHg 54%
17:00 0°C° 0 mm 3 mps 756 mmHg 60%
18:00 -1°C° 0 mm 3 mps 756 mmHg 66%
19:00 -2°C° 0 mm 2 mps 756 mmHg 71%
20:00 -3°C° 0 mm 2 mps 757 mmHg 74%
21:00 -3°C° 0 mm 2 mps 757 mmHg 78%
22:00 -1°C° 0 mm 1 mps 757 mmHg 81%
23:00 -2°C° 0 mm 1 mps 757 mmHg 81%

Tomorrow, 9 March, Tuesday

Time Temperature Precipitation Wind Pressure Humidity
00:00 -2°C° 0 mm 1 mps 757 mmHg 81%
01:00 -3°C° 0 mm 0 mps 757 mmHg 82%
02:00 -3°C° 0 mm 0 mps 757 mmHg 81%
03:00 -2°C° 0 mm 0 mps 756 mmHg 81%
04:00 -2°C° 0 mm 0 mps 756 mmHg 80%
05:00 -2°C° 0 mm 0 mps 756 mmHg 79%
06:00 -1°C° 0 mm 1 mps 756 mmHg 78%
07:00 -1°C° 0 mm 1 mps 757 mmHg 77%
08:00 0°C° 0 mm 1 mps 757 mmHg 72%
09:00 +1°C° 0 mm 1 mps 757 mmHg 68%
10:00 -1°C° 0 mm 2 mps 757 mmHg 63%
11:00 +1°C° 0 mm 2 mps 756 mmHg 58%
12:00 +2°C° 0 mm 2 mps 756 mmHg 53%
13:00 +2°C° 0 mm 2 mps 756 mmHg 48%
14:00 +3°C° 0 mm 1 mps 756 mmHg 47%
15:00 +3°C° 0 mm 1 mps 755 mmHg 47%
16:00 +3°C° 0 mm 1 mps 755 mmHg 46%
17:00 +2°C° 0 mm 1 mps 755 mmHg 52%
18:00 +1°C° 0 mm 1 mps 755 mmHg 58%
19:00 -2°C° 0 mm 2 mps 755 mmHg 63%
20:00 -3°C° 0 mm 2 mps 755 mmHg 65%
21:00 -3°C° 0 mm 2 mps 755 mmHg 68%
22:00 -3°C° 0 mm 2 mps 755 mmHg 70%
23:00 -3°C° 0 mm 2 mps 755 mmHg 69%

Day after tomorrow, 10 March, Wednesday

Time Temperature Precipitation Wind Pressure Humidity
00:00 -3°C° 0 mm 2 mps 755 mmHg 69%
01:00 -3°C° 0 mm 2 mps 755 mmHg 68%
02:00 -3°C° 0 mm 2 mps 755 mmHg 67%
03:00 -1°C° 0 mm 1 mps 755 mmHg 66%
04:00 -1°C° 0 mm 1 mps 754 mmHg 65%
05:00 -1°C° 0 mm 1 mps 755 mmHg 63%
06:00 -1°C° 0 mm 1 mps 755 mmHg 62%
07:00 -1°C° 0 mm 1 mps 755 mmHg 61%
08:00 +1°C° 0 mm 1 mps 755 mmHg 55%
09:00 +2°C° 0 mm 1 mps 755 mmHg 50%
10:00 +3°C° 0 mm 1 mps 755 mmHg 44%
11:00 +3°C° 0 mm 2 mps 755 mmHg 42%
12:00 +3°C° 0 mm 2 mps 755 mmHg 39%
13:00 +4°C° 0 mm 2 mps 755 mmHg 36%
14:00 +4°C° 0 mm 2 mps 754 mmHg 38%
15:00 +4°C° 0 mm 2 mps 754 mmHg 40%
16:00 +4°C° 0 mm 2 mps 754 mmHg 41%
17:00 +2°C° 0 mm 2 mps 754 mmHg 46%
18:00 +1°C° 0 mm 2 mps 754 mmHg 50%
19:00 -1°C° 0 mm 2 mps 754 mmHg 54%
20:00 -1°C° 0 mm 3 mps 754 mmHg 55%
21:00 -2°C° 0 mm 3 mps 753 mmHg 56%
22:00 -3°C° 0 mm 4 mps 753 mmHg 57%
23:00 -3°C° 0 mm 4 mps 753 mmHg 59%

11 March, Thursday

Time Temperature Precipitation Wind Pressure Humidity
00:00 -3°C° 0 mm 4 mps 752 mmHg 61%
01:00 -3°C° 0 mm 4 mps 752 mmHg 63%
02:00 -2°C° 0 mm 4 mps 751 mmHg 69%
03:00 -2°C° 0 mm 5 mps 750 mmHg 75%
04:00 -2°C° 0 mm 5 mps 749 mmHg 82%
05:00 -1°C° 0.1 mm 5 mps 748 mmHg 84%
06:00 -2°C° 0.1 mm 6 mps 748 mmHg 85%
07:00 -2°C° 0.1 mm 6 mps 747 mmHg 87%
08:00 -1°C° 0.6 mm 7 mps 746 mmHg 90%
09:00 -1°C° 0.6 mm 7 mps 745 mmHg 93%
10:00 0°C° 0.6 mm 7 mps 744 mmHg 96%
11:00 0°C° 1 mm 7 mps 743 mmHg 96%
12:00 +2°C° 1 mm 7 mps 743 mmHg 95%
13:00 +2°C° 1 mm 7 mps 742 mmHg 95%
14:00 +3°C° 1.8 mm 7 mps 741 mmHg 95%
15:00 +3°C° 1.8 mm 7 mps 740 mmHg 95%
16:00 +4°C° 1.8 mm 7 mps 739 mmHg 96%
17:00 +4°C° 0.9 mm 7 mps 739 mmHg 94%
18:00 +5°C° 0.9 mm 8 mps 738 mmHg 93%
19:00 +6°C° 0.9 mm 8 mps 738 mmHg 91%
20:00 +5°C° 0.4 mm 7 mps 738 mmHg 90%
21:00 +4°C° 0.4 mm 7 mps 739 mmHg 88%
22:00 +3°C° 0.4 mm 6 mps 739 mmHg 87%
23:00 +3°C° 0 mm 6 mps 740 mmHg 85%

12 March, Friday

Time Temperature Precipitation Wind Pressure Humidity
00:00 +3°C° 0 mm 6 mps 740 mmHg 84%
01:00 +3°C° 0 mm 7 mps 740 mmHg 82%
02:00 +3°C° 0 mm 7 mps 740 mmHg 82%
03:00 +3°C° 0 mm 7 mps 740 mmHg 82%
04:00 +2°C° 0 mm 7 mps 740 mmHg 81%
05:00 +1°C° 0 mm 8 mps 740 mmHg 83%
06:00 +1°C° 0 mm 9 mps 740 mmHg 86%
07:00 0°C° 0 mm 10 mps 741 mmHg 88%
08:00 +1°C° 0.2 mm 10 mps 741 mmHg 82%
09:00 +2°C° 0.2 mm 10 mps 742 mmHg 77%
10:00 +3°C° 0.2 mm 10 mps 743 mmHg 72%
11:00 +4°C° 0.1 mm 11 mps 743 mmHg 66%
12:00 +4°C° 0.1 mm 11 mps 744 mmHg 60%
13:00 +5°C° 0.1 mm 12 mps 744 mmHg 54%
14:00 +4°C° 0.1 mm 11 mps 744 mmHg 55%
15:00 +5°C° 0.1 mm 9 mps 745 mmHg 56%
16:00 +5°C° 0.1 mm 8 mps 745 mmHg 57%
17:00 +4°C° 0 mm 7 mps 745 mmHg 61%
18:00 +3°C° 0 mm 6 mps 745 mmHg 66%
19:00 +2°C° 0 mm 5 mps 746 mmHg 70%
20:00 +2°C° 0 mm 5 mps 746 mmHg 73%
21:00 +2°C° 0 mm 5 mps 746 mmHg 75%
22:00 +2°C° 0 mm 5 mps 747 mmHg 78%
23:00 +1°C° 0 mm 5 mps 746 mmHg 79%

13 March, Saturday

Time Temperature Precipitation Wind Pressure Humidity
00:00 +1°C° 0 mm 5 mps 746 mmHg 80%
01:00 +1°C° 0 mm 5 mps 746 mmHg 81%
02:00 0°C° 0 mm 5 mps 746 mmHg 83%
03:00 0°C° 0 mm 4 mps 746 mmHg 85%
04:00 -1°C° 0 mm 4 mps 746 mmHg 86%
05:00 -1°C° 0 mm 4 mps 746 mmHg 85%
06:00 -1°C° 0 mm 5 mps 746 mmHg 84%
07:00 0°C° 0 mm 5 mps 745 mmHg 82%
08:00 +1°C° 0 mm 5 mps 745 mmHg 78%
09:00 +3°C° 0 mm 5 mps 745 mmHg 74%
10:00 +5°C° 0 mm 5 mps 745 mmHg 69%
11:00 +5°C° 0 mm 6 mps 745 mmHg 67%
12:00 +7°C° 0 mm 6 mps 744 mmHg 64%
13:00 +8°C° 0 mm 6 mps 744 mmHg 62%
14:00 +8°C° 0.1 mm 6 mps 744 mmHg 65%
15:00 +7°C° 0.1 mm 6 mps 744 mmHg 69%
16:00 +7°C° 0.1 mm 6 mps 744 mmHg 73%
17:00 +6°C° 0.1 mm 5 mps 744 mmHg 78%
18:00 +5°C° 0.1 mm 4 mps 744 mmHg 83%
19:00 +4°C° 0.1 mm 4 mps 744 mmHg 89%
20:00 +3°C° 0 mm 3 mps 744 mmHg 90%
21:00 +3°C° 0 mm 3 mps 745 mmHg 91%
22:00 +2°C° 0 mm 3 mps 745 mmHg 92%
23:00 +2°C° 0 mm 3 mps 745 mmHg 93%
Show more

We Need Your Consent

Meteoprog and our Service Providers may store and access personal data such as cookies, device identifiers or other similar technologies on your device and process such data to personalise content and ads, as well as provide social media features and to analyse the traffic.

  • Store and/or access information on your device

    Cookies, device identifiers or other information can be stored or accessed on your device for the purposes indicated above.

  • Personalised ads and content, ad and content measurement, audience insights, and products development

    Ads and content can be personalised based on a profile. More data can be added to better personalise ads and content. Ad and content performance can be measured. Insights about the audience who saw the ads and content can be derived. Such data can be used to develop or improve user’s experience, systems and software.

By clicking ‘I Agree’ you will allow the use of indicated cookies, device identifiers, web beacons or other similar technologies. Your settings can be changed in the browser on your device.

For certain purposes, legitimate interests may be relied on, rather than consent. You can read more about this in our Privacy and Cookie Policy.